アトラス彗星

P/2019 T5 ( ATLAS )

English version
Home page
Updated on April 17, 2020

---------------------------------------------------------------------

・ プロフィール

発見日 2019年10月8日
発見光度 18.9等
発見者 Asteroid Terrestrial-Impact Last Alert System (ATLAS) search program

・ 写真集

・ 軌道要素

Epoch 2019 July 16.0 TT = JDT 2458680.5
T 2019 Aug. 1.14885 TT                                  Bell
q   1.5289096            (2000.0)            P               Q
n   0.04343820     Peri.  189.62066     +0.24511798     -0.82475481
a   8.0147169      Node   247.69684     +0.92209088     +0.36067963
e   0.8092372      Incl.   33.42269     +0.29944212     -0.43553382
P  22.7
From 72 observations 2019 Oct. 8-2020 Feb. 24, mean residual 0".5.

・ 光度変化

        m1 = 14.0 + 5 logΔ + 10.0 log r

---------------------------------------------------------------------

軌道要素はM.P.E.C. 2020-E26に掲載されたものです。
光度グラフはComet for Windowsで作成したものです。

---------------------------------------------------------------------

Copyright(C) Seiichi Yoshida (comet@aerith.net). All rights reserved.